Volver al catálogo

ARIANE 44LP R/B

ActivoGTO
NORAD 19689·ROCKET BODY·🇫🇷 France

Lanzado Dec 11, 1988 desde Guiana Space Centre

Loading…

TLE

ObsoletoSource: Space-Track

Época: Sep 14, 2026, 02:35 UTC

1 19689U 88109C   26257.10782453  .00000067  00000-0  73473-3 0  9991
2 19689   6.5033 214.5456 7179243  95.7848 342.4128  2.30277624280178

Sigue ARIANE 44LP R/B en tiempo real con AllMySat

Download on the App Store